Location: Lawrence Hall of Science
(37.8785°N, 122.2415°W)
Time: 10:22:48
(UTC-07:00)

ARGOS - Visible Passes

Search period start: 24 April 2014 00:00
Search period end: 04 May 2014 00:00
Orbit: 821 x 835 km, 98.8° (Epoch: 23 April)

Date Brightness Start Highest point End Pass type
(mag) Time Alt. Az. Time Alt. Az. Time Alt. Az.
24 Apr 3.9 21:55:52 34° ENE 21:56:18 34° ENE 22:01:08 10° N visible
24 Apr 4.8 23:37:23 27° W 23:37:23 27° W 23:41:07 10° NW visible
25 Apr 4.4 21:37:09 23° E 21:38:04 24° ENE 21:42:18 10° NNE visible
25 Apr 4.2 23:18:40 40° W 23:18:40 40° W 23:23:08 10° NNW visible
26 Apr 4.8 21:18:26 15° E 21:19:54 17° ENE 21:23:11 10° NNE visible
26 Apr 3.5 22:59:57 61° WNW 22:59:57 61° WNW 23:04:57 10° NNW visible
27 Apr 5.2 21:00:15 10° ENE 21:01:47 11° ENE 21:03:18 10° NE visible
27 Apr 3.0 22:41:15 87° NNE 22:41:15 87° NNE 22:46:37 10° NNW visible
28 Apr 3.2 22:22:32 59° E 22:22:49 60° ENE 22:28:09 10° N visible
29 Apr 5.4 00:04:04 15° W 00:04:04 15° W 00:06:36 10° NW visible
29 Apr 3.7 22:03:50 39° E 22:04:31 41° ENE 22:09:33 10° N visible
29 Apr 4.9 23:45:21 23° W 23:45:21 23° W 23:49:08 10° NW visible
30 Apr 4.2 21:45:07 26° E 21:46:16 28° ENE 21:50:48 10° N visible
30 Apr 4.3 23:26:39 35° W 23:26:39 35° W 23:31:15 10° NNW visible
01 May 4.7 21:26:25 17° E 21:28:04 20° ENE 21:31:50 10° NNE visible
01 May 3.7 23:07:56 52° W 23:07:56 52° W 23:13:09 10° NNW visible
02 May 5.1 21:07:42 11° E 21:09:55 14° ENE 21:12:26 10° NNE visible
02 May 3.1 22:49:14 77° SW 22:49:26 78° WSW 22:54:52 10° NNW visible
03 May 3.0 22:30:31 66° ESE 22:31:03 72° ENE 22:36:28 10° N visible
